Location: Bucaritos
(10.0779°N, 67.0369°W)
Time: 11:01:54
(UTC+00:00)

GPS 2-17 Rocket1 - Pass Details

Date: 27 June 2022
Orbit: 569 x 655 km, 20.3° (Epoch: 17 August)

Event Time Altitude Azimuth Distance (km) Brightness Sun altitude
Rises 23:39:11 0° 259° (WSW) 2,777 7.3 -11.2°
Reaches altitude 10° 23:41:29 10° 262° (W) 1,889 6.4 -11.7°
Maximum altitude 23:45:51 62° 343° (NNW) 667 3.4 -12.7°
Drops below altitude 10° 23:50:20 10° 64° (ENE) 1,942 5.3 -13.7°
Enters shadow 23:50:50 - 65° (ENE) 2,128 5.5 -13.8°
